286  
ASUS44 KHUN 192010  
RWRHUN  
 
WEATHER ROUNDUP FOR THE TENNESSEE VALLEY  
NATIONAL WEATHER SERVICE HUNTSVILLE AL  
300 PM CDT FRI JUL 19 2019  
 
ALZ001>004-192100-  
NORTHWEST ALABAMA  
 
CITY SKY/WX TMP DP RH WIND PRES REMARKS
 
SHOALS AIRPORT FAIR 93 74 53 VRB3 30.04F HX 103  

 
 
ALZ005>007-016-192100-  
NORTH CENTRAL ALABAMA  
 
CITY SKY/WX TMP DP RH WIND PRES REMARKS
 
CULLMAN AG STN N/A 84 N/A N/A NE3 N/A  
DECATUR AP FAIR 89 73 59 NW6 30.06F HX 97  
HUNTSVILLE AP PTSUNNY 88 74 63 SW7 30.05F HX 96  
MERIDIANVILLE MOSUNNY 87 74 64 SW6 30.06F HX 96  
VINEMONT AP FAIR 85 73 67 NE3 30.11S HX 91  

 
 
ALZ008>010-192100-  
NORTHEAST ALABAMA  
 
CITY SKY/WX TMP DP RH WIND PRES REMARKS
 
ALBERTVILLE FAIR 79 72 78 CALM 30.09F  
FORT PAYNE FAIR 81 75 81 W3 30.08F  
SCOTTSBORO AP FAIR 86 79 79 S7 30.06F HX 99  

 
 
TNZ076-096-097-192100-  
SOUTHEASTERN MIDDLE TENNESSEE  
 
CITY SKY/WX TMP DP RH WIND PRES REMARKS
 
FAYETTEVILLE MOSUNNY 88 73 62 SW8 30.06F HX 96  
TULLAHOMA MOSUNNY 86 73 66 SW5 30.06S HX 93  
WINCHESTER MOSUNNY 90 70 51 W6 30.06F HX 95  

 
   
..SURROUNDING SITES
 
 
 
CITY SKY/WX TMP DP RH WIND PRES REMARKS
 
ATLANTA LGT RAIN 75 71 87 W7 30.10F  
ANNISTON LGT RAIN 77 74 90 E6 30.10F  
BIRMINGHAM PTSUNNY 84 74 71 E7 30.10S HX 91  
CHATTANOOGA PTSUNNY 83 75 77 VRB5 30.06F HX 90  
CORINTH FAIR 91 73 55 SW5 30.03S HX 100  
DALTON PTSUNNY 82 70 65 SW3 30.09S  
GADSDEN LGT RAIN 75 32 20 CALM 30.10S  
GOLDEN TRNGL FAIR 92 77 61 S5 30.03F HX 105  
HALEYVILLE FAIR 89 73 59 CALM 30.09F HX 97  
JACKSON TN FAIR 93 76 57 SW9 30.03S HX 105  
MEMPHIS FAIR 91 76 61 SW9G21 30.01F HX 103  
NASHVILLE PTSUNNY 95 71 45 SW8 30.02F HX 102  
OXFORD MS FAIR 91 73 55 SW8 30.04S HX 100  
ROME FAIR 79 73 82 SW8 30.08S  
SAVANNAH MOSUNNY 91 75 59 S5G12 30.03F HX 102  
SELMER PTSUNNY 88 75 66 S3 30.03S HX 97  
TUPELO FAIR 93 76 57 S7 30.03S HX 105  
TUSCALOOSA FAIR 84 72 67 E3 30.05F  

 
 
 
 
CLICK HERE TO GO TO PREVIOUS BULLETINS.

The Nexlab AL Page
The Nexlab TN Page Main Text Page